Location: Borgo
(42.3939°N, 9.2791°E)
Time: 21:01:12
(UTC+00:00)

Cosmos 2278 Rocket - Pass Details

Date: 24 January 2021
Orbit: 840 x 847 km, 71.0° (Epoch: 03 March)

Event Time Altitude Azimuth Distance (km) Brightness Sun altitude
Rises 17:18:54 0° 162° (SSE) 3,385 5.3 -9.8°
Reaches altitude 10° 17:21:56 10° 146° (SE) 2,457 4.4 -10.4°
Maximum altitude 17:25:57 20° 100° (E) 1,842 3.4 -11.1°
Enters shadow 17:28:36 15° 66° (ENE) 2,139 3.7 -11.5°
